{"data":{"norad_id":40984,"epoch":"2026-05-25T03:58:53.392800Z","epoch_age_seconds":56663,"freshness":"FRESH","line1":"1 40984U 15060A   26145.16589575  .00000113  00000+0  00000+0 0  9994","line2":"2 40984   0.0345  92.9917 0002365 323.6935 295.7789  1.00269894 38864","mean_motion":1.00269894,"eccentricity":0.0002365,"inclination_deg":0.0345,"raan_deg":92.9917,"arg_perigee_deg":323.6935,"mean_anomaly_deg":295.7789,"bstar":0,"rev_number":3886,"period_min":1436.1239875251,"perigee_km":35777.153000984,"apogee_km":35797.09716995,"semimajor_km":42165.262085467,"source":"CELESTRAK","updated_at":"2026-05-25T13:38:13.995155Z"}}